Weather in Criciuma

Brazil     28°40′14″S   49°22′00″W
temp.,
°C
wind,
m/s
gust,
m/s
humid.,
%
clouds,
%
prec.,
mm/h
press.,
hPa
HPBL,
m
21 june, mon
mon2100:00+12nw229735 0.0 102234
03:00+12nw229732 0.0 102137
06:00+12nw229693 0.0 102154
09:00+14nw129167 0.0 1023121
12:00+18ese227516 0.0 1021650
15:00+17se348218 0.1 1020361
18:00+15ese2392100 0.0 1021100
21:00+15ssw1197100 2.9 102239
22 june, tue
tue2200:00+15s2298100 3.1 1021141
03:00+15ssw2497100 4.3 1021234
06:00+15sw129670 0.4 1022150
09:00+15wsw239498 0.4 1024207
12:00+18ssw238034 0.1 1024700
15:00+17sse337827 0.3 1022597
18:00+14sse129015 0.0 102453
21:00+13wnw11934 0.0 102522
23 june, wed
wed2300:00+12nw22959 0.0 102531
03:00+12nnw229499 0.0 102433
06:00+11nne2394100 0.0 102360
09:00+14nne3588100 0.0 1024190
12:00+19ne5868100 0.0 1023944
15:00+20ene5871100 0.0 1020866
18:00+16ne51185100 0.0 1019305
21:00+15ne41188100 0.0 1019321
24 june, thu
thu2400:00+16ne51281100 0.0 1017468
03:00+17nne51176100 0.0 1015448
06:00+18nne61375100 0.0 1013486
09:00+18nne71474100 0.0 1012447
12:00+21nne71570100 0.1 1009461
15:00+22nne61367100 0.1 1006323
18:00+18wnw2385100 0.1 100859
21:00+16w2398100 0.3 100963
25 june, fri
fri2500:00+16nne229713 3.8 100942
03:00+15nw12930 3.8 101015
06:00+14wnw22940 0.0 101232
09:00+16w12860 0.0 1015105
12:00+20sse43730 0.0 1016605
15:00+18se44839 0.0 1015391
18:00+15se22948 0.0 101764
21:00+14ne129443 0.0 101872